GW5387 Weather Reports


time (UTC)temp
C
wind
direction
speed
KPH
gust
KPH
rain 1hr
cm
rain 24hr
cm
rain mn
cm
humidity
%
barometer
mb
20260905062822 16 278 4.8 6.4 0.00 0.00 0.00 66 1023.0
20260905062322 16 278 3.2 6.4 0.00 0.00 0.00 63 1023.0
20260905061822 17 278 4.8 4.8 0.00 0.00 0.00 60 1023.0
20260905061322 16 279 3.2 4.8 0.00 0.00 0.00 59 1023.0
20260905060822 16 247 1.6 3.2 0.00 0.00 0.00 61 1023.0
20260905060322 16 289 3.2 4.8 0.00 0.00 0.00 58 1023.0
20260905055822 16 292 3.2 3.2 0.00 0.00 0.03 59 1023.0
20260905055323 16 291 3.2 4.8 0.00 0.00 0.03 61 1023.0
20260905054822 17 281 6.4 6.4 0.00 0.00 0.03 61 1023.0
20260905054325 17 287 3.2 4.8 0.00 0.00 0.03 56 1023.0
20260905053822 17 290 1.6 3.2 0.00 0.00 0.03 56 1023.0
20260905053322 18 306 3.2 4.8 0.00 0.00 0.03 51 1023.0
20260905052823 18 281 4.8 6.4 0.00 0.00 0.03 53 1023.0
20260905052322 18 302 3.2 4.8 0.00 0.00 0.03 54 1023.0
20260905051822 19 64 3.2 4.8 0.00 0.00 0.03 52 1023.0
20260905051322 20 71 1.6 3.2 0.00 0.00 0.03 49 1023.0
20260905050822 20 212 3.2 4.8 0.00 0.00 0.03 49 1023.0
20260905050323 19 204 1.6 3.2 0.00 0.00 0.03 49 1023.0
20260905045822 19 189 3.2 4.8 0.00 0.00 0.03 50 1023.0
20260905045324 18 210 6.4 8.0 0.00 0.00 0.03 51 1023.0
20260905044822 18 186 1.6 3.2 0.00 0.00 0.03 53 1023.0
20260905044322 17 254 1.6 4.8 0.00 0.00 0.03 57 1023.0
20260905043823 18 284 3.2 4.8 0.00 0.00 0.03 58 1023.0
20260905043322 18 287 6.4 6.4 0.00 0.00 0.03 57 1023.0
20260905042823 20 287 3.2 6.4 0.00 0.00 0.03 50 1023.0
20260905042323 20 228 1.6 3.2 0.00 0.00 0.03 46 1023.0
20260905041822 20 197 1.6 3.2 0.00 0.00 0.03 45 1023.0
20260905041323 20 156 3.2 4.8 0.00 0.00 0.03 45 1023.0
20260905040822 20 162 4.8 4.8 0.00 0.00 0.03 45 1023.0
20260905040322 20 215 4.8 6.4 0.00 0.00 0.03 45 1023.0
20260905035823 20 220 4.8 6.4 0.00 0.00 0.03 45 1023.0
20260905035322 21 235 4.8 6.4 0.00 0.00 0.03 45 1023.0
20260905034823 21 236 4.8 6.4 0.00 0.00 0.03 44 1023.0
20260905034322 21 241 4.8 6.4 0.00 0.00 0.03 44 1023.0
20260905033822 21 189 3.2 4.8 0.00 0.00 0.03 44 1023.0
20260905033322 21 200 3.2 3.2 0.00 0.00 0.03 44 1023.0
20260905032822 21 192 3.2 3.2 0.00 0.00 0.03 43 1023.0
20260905032324 21 166 4.8 8.0 0.00 0.00 0.03 42 1023.0
20260905031822 21 157 4.8 4.8 0.00 0.00 0.03 43 1023.0
20260905031322 21 225 1.6 3.2 0.00 0.00 0.03 46 1023.0
20260905030822 21 233 1.6 3.2 0.00 0.00 0.03 43 1022.0
20260905030323 22 210 1.6 3.2 0.00 0.00 0.03 42 1022.0
20260905025822 22 205 3.2 3.2 0.00 0.00 0.03 41 1022.0
20260905025323 22 226 3.2 4.8 0.00 0.00 0.03 41 1022.0
20260905024822 23 220 4.8 6.4 0.00 0.00 0.03 40 1022.0
20260905024322 23 209 1.6 3.2 0.00 0.00 0.03 38 1022.0
20260905023822 23 172 3.2 3.2 0.00 0.00 0.03 37 1022.0
20260905023323 23 148 3.2 4.8 0.00 0.00 0.03 37 1022.0
20260905022823 23 131 0.0 1.6 0.00 0.00 0.03 37 1022.0
20260905022322 23 360 0.0 0.0 0.00 0.00 0.03 36 1022.0
20260905021822 24 202 0.0 0.0 0.00 0.00 0.03 36 1022.0
20260905021322 24 164 0.0 3.2 0.00 0.00 0.03 36 1022.0
20260905020822 24 188 1.6 3.2 0.00 0.00 0.03 36 1022.0
20260905015847 25 183 4.8 8.0 0.00 0.00 0.03 35 1022.0
20260905015322 25 204 4.8 4.8 0.00 0.00 0.03 34 1022.0
20260905014822 25 179 6.4 9.7 0.00 0.00 0.03 33 1022.0
20260905014322 25 216 4.8 6.4 0.00 0.00 0.03 34 1022.0
20260905013822 25 191 4.8 6.4 0.00 0.00 0.03 33 1022.0
20260905013322 25 173 6.4 9.7 0.00 0.00 0.03 32 1022.0
20260905012823 26 171 9.7 14.5 0.00 0.00 0.03 31 1022.0
20260905012322 26 182 6.4 12.9 0.00 0.00 0.03 31 1022.0
20260905011822 26 193 8.0 11.3 0.00 0.00 0.03 32 1021.0
20260905011323 26 210 9.7 17.7 0.00 0.00 0.03 32 1021.0
20260905010822 26 198 9.7 12.9 0.00 0.00 0.03 31 1021.0
20260905010323 26 170 11.3 14.5 0.00 0.00 0.03 30 1021.0
20260905005822 26 162 11.3 17.7 0.00 0.00 0.03 30 1021.0
20260905005323 27 175 8.0 11.3 0.00 0.00 0.03 30 1021.0
20260905004822 27 179 11.3 14.5 0.00 0.00 0.03 30 1021.0
20260905004322 27 177 9.7 12.9 0.00 0.00 0.03 30 1021.0
20260905003822 27 185 6.4 9.7 0.00 0.00 0.03 29 1021.0
20260905003322 27 189 11.3 16.1 0.00 0.00 0.03 29 1021.0
20260905002822 27 175 12.9 16.1 0.00 0.00 0.03 29 1021.0
20260905002323 28 193 12.9 16.1 0.00 0.00 0.03 28 1021.0
20260905001822 28 178 11.3 17.7 0.00 0.00 0.03 29 1021.0
20260905001322 27 184 8.0 12.9 0.00 0.00 0.03 29 1021.0
20260905000822 27 170 11.3 16.1 0.00 0.00 0.03 28 1021.0
20260905000325 27 199 8.0 12.9 0.00 0.00 0.03 30 1021.0
20260904235822 27 183 8.0 11.3 0.00 0.00 0.03 30 1021.0
20260904235323 27 163 11.3 14.5 0.00 0.00 0.03 29 1021.0
20260904234822 27 177 9.7 14.5 0.00 0.00 0.03 30 1021.0
20260904234322 27 174 8.0 12.9 0.00 0.00 0.03 30 1021.0
20260904233823 27 171 8.0 11.3 0.00 0.00 0.03 30 1021.0
20260904233322 27 161 6.4 9.7 0.00 0.00 0.03 29 1021.0
20260904232822 27 178 4.8 6.4 0.00 0.00 0.03 29 1021.0
20260904232322 27 190 9.7 14.5 0.00 0.00 0.03 28 1021.0
20260904231823 27 162 11.3 12.9 0.00 0.00 0.03 29 1021.0
20260904231323 27 165 6.4 9.7 0.00 0.00 0.03 30 1021.0
20260904230822 27 178 9.7 14.5 0.00 0.00 0.03 29 1021.0
20260904230324 27 178 8.0 11.3 0.00 0.00 0.03 29 1021.0
20260904225822 27 152 11.3 14.5 0.00 0.00 0.03 29 1021.0
20260904225322 27 179 8.0 9.7 0.00 0.00 0.03 29 1021.0
20260904224823 27 187 8.0 14.5 0.00 0.00 0.03 29 1021.0
20260904224323 27 175 8.0 9.7 0.00 0.00 0.03 29 1021.0
20260904223822 27 152 12.9 16.1 0.00 0.00 0.03 29 1021.0
20260904223322 28 166 11.3 14.5 0.00 0.00 0.03 28 1021.0
20260904222822 28 160 9.7 11.3 0.00 0.00 0.03 28 1021.0
20260904222323 28 162 12.9 17.7 0.00 0.00 0.03 28 1021.0
20260904221824 28 123 1.6 3.2 0.00 0.00 0.03 27 1021.0
20260904221322 28 149 8.0 11.3 0.00 0.00 0.03 28 1021.0
20260904220823 28 200 6.4 9.7 0.00 0.00 0.03 29 1021.0
20260904220323 28 199 0.0 3.2 0.00 0.00 0.00 28 1021.0
20260904215822 28 56 1.6 3.2 0.00 0.00 0.00 27 1021.0
20260904215322 28 68 1.6 4.8 0.00 0.00 0.00 28 1021.0
20260904214824 28 116 3.2 6.4 0.00 0.00 0.00 26 1021.0
20260904214322 28 114 4.8 8.0 0.00 0.00 0.00 25 1021.0
20260904213822 28 70 3.2 3.2 0.00 0.00 0.00 26 1021.0
20260904213322 28 125 6.4 9.7 0.00 0.00 0.00 25 1021.0
20260904212823 28 124 3.2 6.4 0.00 0.00 0.00 26 1021.0
20260904212322 28 126 8.0 12.9 0.00 0.00 0.00 26 1021.0
20260904211822 28 109 3.2 6.4 0.00 0.00 0.00 26 1021.0
20260904211324 28 131 3.2 6.4 0.00 0.00 0.00 27 1021.0
20260904210822 29 160 3.2 4.8 0.00 0.00 0.00 25 1021.0
20260904210323 29 142 3.2 6.4 0.00 0.00 0.00 25 1021.0
20260904205827 29 171 3.2 4.8 0.00 0.00 0.00 26 1021.0
20260904205322 28 85 0.0 3.2 0.00 0.00 0.00 25 1021.0
20260904204823 28 170 0.0 3.2 0.00 0.00 0.00 25 1022.0
20260904204322 28 150 8.0 11.3 0.00 0.00 0.00 26 1022.0
20260904203822 28 168 6.4 8.0 0.00 0.00 0.00 27 1022.0
20260904203322 28 155 9.7 14.5 0.00 0.00 0.00 26 1022.0
20260904202823 28 222 8.0 12.9 0.00 0.00 0.00 26 1022.0
20260904202322 28 167 4.8 8.0 0.00 0.00 0.00 26 1022.0
20260904201822 28 231 8.0 9.7 0.00 0.00 0.00 26 1022.0
20260904201322 28 160 8.0 14.5 0.00 0.00 0.00 25 1022.0
20260904200823 28 143 0.0 3.2 0.00 0.00 0.00 26 1022.0
20260904200323 29 144 8.0 9.7 0.00 0.00 0.00 25 1022.0
20260904195822 28 146 4.8 9.7 0.00 0.00 0.00 25 1022.0
20260904195323 28 131 8.0 9.7 0.00 0.00 0.00 24 1022.0
20260904194823 28 157 9.7 12.9 0.00 0.00 0.00 26 1022.0
20260904194322 28 131 6.4 12.9 0.00 0.00 0.00 26 1022.0
20260904193822 28 135 3.2 6.4 0.00 0.00 0.00 26 1022.0
20260904193322 28 146 11.3 14.5 0.00 0.00 0.00 26 1022.0
20260904192822 28 147 3.2 6.4 0.00 0.00 0.00 27 1022.0
20260904192323 28 130 6.4 9.7 0.00 0.00 0.00 26 1022.0
20260904191823 28 112 8.0 11.3 0.00 0.00 0.00 26 1022.0
20260904191322 27 163 8.0 11.3 0.00 0.00 0.00 26 1022.0
20260904190822 28 167 6.4 12.9 0.00 0.00 0.00 26 1022.0
20260904190322 28 133 4.8 9.7 0.00 0.00 0.00 26 1022.0
20260904185823 28 133 9.7 12.9 0.00 0.00 0.00 26 1022.0
20260904185322 28 155 3.2 9.7 0.00 0.00 0.00 25 1022.0
20260904184822 28 104 6.4 11.3 0.00 0.00 0.00 25 1022.0
20260904184322 28 143 6.4 9.7 0.00 0.00 0.00 26 1022.0
20260904183822 28 253 4.8 8.0 0.00 0.00 0.00 27 1022.0
20260904183322 28 292 8.0 12.9 0.00 0.00 0.00 27 1023.0
20260904182823 28 238 9.7 17.7 0.00 0.00 0.00 26 1023.0
20260904182322 28 278 9.7 12.9 0.00 0.00 0.00 28 1023.0
20260904181822 28 310 8.0 12.9 0.00 0.00 0.00 27 1023.0
20260904181323 27 302 11.3 14.5 0.00 0.00 0.00 29 1023.0
20260904180823 28 295 14.5 17.7 0.00 0.00 0.00 28 1023.0
20260904180322 27 300 11.3 14.5 0.00 0.00 0.00 28 1023.0
20260904175822 27 240 3.2 8.0 0.00 0.00 0.00 28 1023.0
20260904175322 27 277 6.4 11.3 0.00 0.00 0.00 29 1023.0
20260904174822 27 310 3.2 6.4 0.00 0.00 0.00 28 1023.0
20260904174322 27 292 12.9 14.5 0.00 0.00 0.00 28 1023.0
20260904173825 27 315 11.3 16.1 0.00 0.00 0.00 28 1023.0
20260904173323 27 296 4.8 9.7 0.00 0.00 0.00 30 1023.0
20260904172823 27 271 11.3 16.1 0.00 0.00 0.00 29 1023.0
20260904172322 27 248 4.8 9.7 0.00 0.00 0.00 28 1023.0
20260904171822 27 292 11.3 17.7 0.00 0.00 0.00 30 1023.0
20260904171323 27 228 9.7 19.3 0.00 0.00 0.00 29 1023.0
20260904170822 27 249 6.4 12.9 0.00 0.00 0.00 29 1023.0
20260904170323 26 245 4.8 12.9 0.00 0.00 0.00 29 1023.0
20260904165823 26 270 6.4 11.3 0.00 0.00 0.00 29 1023.0
20260904165322 26 297 6.4 11.3 0.00 0.00 0.00 29 1023.0
20260904164822 26 298 12.9 16.1 0.00 0.00 0.00 29 1023.0
20260904164323 26 295 12.9 17.7 0.00 0.00 0.00 30 1023.0
20260904163823 26 269 9.7 17.7 0.00 0.00 0.00 30 1023.0
20260904163322 26 276 4.8 9.7 0.00 0.00 0.00 29 1023.0
20260904162822 26 298 4.8 8.0 0.00 0.00 0.00 29 1023.0
20260904162322 25 289 4.8 8.0 0.00 0.00 0.00 30 1023.0
20260904161822 25 268 14.5 20.9 0.00 0.00 0.00 30 1023.0
20260904161324 25 283 16.1 22.5 0.00 0.00 0.00 30 1023.0
20260904160823 25 273 12.9 24.1 0.00 0.00 0.00 31 1023.0
20260904160324 25 270 8.0 12.9 0.00 0.00 0.00 30 1023.0
20260904155823 25 301 9.7 12.9 0.00 0.00 0.00 30 1023.0
20260904155323 25 288 4.8 8.0 0.00 0.00 0.00 31 1023.0
20260904154822 25 360 3.2 6.4 0.00 0.00 0.00 31 1023.0
20260904154322 25 285 6.4 9.7 0.00 0.00 0.00 30 1023.0
20260904153827 25 276 9.7 16.1 0.00 0.00 0.00 31 1023.0
20260904153323 25 277 8.0 12.9 0.00 0.00 0.00 31 1023.0
20260904152822 25 299 4.8 9.7 0.00 0.00 0.00 31 1023.0
20260904152322 25 255 3.2 6.4 0.00 0.00 0.00 31 1023.0
20260904151823 25 304 4.8 6.4 0.00 0.00 0.00 32 1023.0
20260904151323 25 340 4.8 8.0 0.00 0.00 0.00 31 1023.0
20260904150825 25 70 6.4 9.7 0.00 0.00 0.00 31 1023.0
20260904150323 25 26 3.2 6.4 0.00 0.00 0.00 30 1023.0
20260904145824 25 239 1.6 3.2 0.00 0.00 0.00 31 1023.0
20260904145322 25 70 3.2 9.7 0.00 0.00 0.00 31 1023.0
20260904144824 25 88 1.6 4.8 0.00 0.00 0.00 31 1023.0
20260904144324 24 85 3.2 4.8 0.00 0.00 0.00 30 1023.0
20260904143822 24 104 6.4 9.7 0.00 0.00 0.00 30 1023.0
20260904143324 24 27 4.8 8.0 0.00 0.00 0.00 31 1023.0
20260904142823 23 93 1.6 4.8 0.00 0.00 0.00 31 1023.0
20260904142322 23 84 3.2 4.8 0.00 0.00 0.00 30 1023.0
20260904141823 23 76 1.6 4.8 0.00 0.00 0.00 31 1023.0
20260904141323 23 52 1.6 4.8 0.00 0.00 0.00 31 1023.0
20260904140823 22 68 1.6 3.2 0.00 0.00 0.00 32 1023.0
20260904140322 22 147 1.6 4.8 0.00 0.00 0.00 34 1023.0
20260904135823 22 73 3.2 8.0 0.00 0.00 0.00 34 1023.0
20260904135323 22 360 0.0 0.0 0.00 0.00 0.00 33 1023.0
20260904134823 21 58 1.6 3.2 0.00 0.00 0.00 32 1023.0
20260904134323 21 312 1.6 3.2 0.00 0.00 0.00 35 1023.0
20260904133823 20 290 0.0 1.6 0.00 0.00 0.00 35 1023.0
20260904133322 20 4 0.0 1.6 0.00 0.00 0.00 35 1023.0
20260904132823 20 257 0.0 3.2 0.00 0.00 0.00 36 1022.0
20260904132322 19 155 0.0 3.2 0.00 0.00 0.00 38 1022.0
20260904131831 19 227 0.0 3.2 0.00 0.00 0.00 36 1022.0
20260904131324 18 34 1.6 3.2 0.00 0.00 0.00 36 1022.0
20260904130822 18 310 3.2 4.8 0.00 0.00 0.00 36 1022.0
20260904130322 18 356 3.2 6.4 0.00 0.00 0.00 37 1022.0
20260904125822 18 319 3.2 6.4 0.00 0.00 0.00 36 1022.0
20260904125322 18 355 4.8 6.4 0.00 0.00 0.00 36 1022.0
20260904124823 18 97 1.6 4.8 0.00 0.00 0.00 36 1022.0
20260904124322 18 10 3.2 3.2 0.00 0.00 0.00 36 1022.0
20260904123822 19 185 6.4 9.7 0.00 0.00 0.00 34 1022.0
20260904123323 18 179 1.6 3.2 0.00 0.00 0.00 35 1022.0
20260904122823 18 224 3.2 4.8 0.00 0.00 0.00 36 1022.0
20260904122323 19 282 1.6 3.2 0.00 0.00 0.00 34 1022.0
20260904121824 19 3 6.4 11.3 0.00 0.00 0.00 34 1022.0
20260904121322 18 54 1.6 4.8 0.00 0.00 0.00 34 1022.0
20260904120822 18 347 1.6 4.8 0.00 0.00 0.00 35 1021.0
20260904120322 18 316 3.2 6.4 0.00 0.00 0.00 36 1021.0
20260904115823 18 173 3.2 6.4 0.00 0.00 0.00 35 1021.0
20260904115325 18 24 3.2 6.4 0.00 0.00 0.00 34 1021.0
20260904114824 18 344 1.6 4.8 0.00 0.00 0.00 34 1021.0
20260904114323 19 65 0.0 3.2 0.00 0.00 0.00 34 1021.0
20260904113822 19 4 0.0 1.6 0.00 0.00 0.00 32 1021.0
20260904113324 19 17 3.2 8.0 0.00 0.00 0.00 33 1021.0
20260904112822 19 327 3.2 4.8 0.00 0.00 0.00 32 1021.0
20260904112323 19 346 4.8 6.4 0.00 0.00 0.00 32 1021.0
20260904111822 19 349 3.2 8.0 0.00 0.00 0.00 33 1021.0
20260904111322 18 323 1.6 4.8 0.00 0.00 0.00 33 1021.0
20260904110822 19 7 0.0 3.2 0.00 0.00 0.00 33 1021.0
20260904110322 18 15 3.2 3.2 0.00 0.00 0.00 33 1021.0
20260904105822 18 13 4.8 6.4 0.00 0.00 0.00 34 1021.0
20260904105323 19 334 3.2 6.4 0.00 0.00 0.00 33 1021.0
20260904104822 19 358 6.4 11.3 0.00 0.00 0.00 32 1021.0
20260904104322 19 346 3.2 6.4 0.00 0.00 0.00 33 1021.0
20260904103823 20 325 4.8 8.0 0.00 0.00 0.00 32 1021.0
20260904103321 20 39 1.6 3.2 0.00 0.00 0.00 31 1021.0
20260904102823 20 19 3.2 3.2 0.00 0.00 0.00 32 1021.0
20260904102323 19 159 6.4 11.3 0.00 0.00 0.00 31 1021.0
20260904101822 19 197 3.2 6.4 0.00 0.00 0.00 33 1021.0
20260904101322 18 345 3.2 4.8 0.00 0.00 0.00 32 1021.0
20260904100822 18 334 3.2 6.4 0.00 0.00 0.00 34 1021.0
20260904100323 18 267 3.2 3.2 0.00 0.00 0.00 36 1021.0
20260904095822 18 308 4.8 6.4 0.00 0.00 0.00 35 1021.0
20260904095322 18 67 3.2 6.4 0.00 0.00 0.00 36 1021.0
20260904094822 17 51 6.4 8.0 0.00 0.00 0.00 36 1021.0
20260904094322 17 3 3.2 4.8 0.00 0.00 0.00 38 1021.0
20260904093823 18 40 3.2 3.2 0.00 0.00 0.00 35 1021.0
20260904093323 17 215 1.6 4.8 0.00 0.00 0.00 36 1021.0
20260904092822 17 319 3.2 3.2 0.00 0.00 0.00 40 1021.0
20260904092323 16 194 3.2 6.4 0.00 0.00 0.00 38 1021.0
20260904091822 16 67 4.8 9.7 0.00 0.00 0.00 44 1020.0
20260904091323 15 76 6.4 11.3 0.00 0.00 0.00 47 1020.0
20260904090822 14 51 1.6 4.8 0.00 0.00 0.00 52 1020.0
20260904090322 14 34 3.2 6.4 0.00 0.00 0.00 54 1020.0
20260904085822 14 23 4.8 6.4 0.00 0.00 0.00 56 1020.0
20260904085322 14 22 6.4 8.0 0.00 0.00 0.00 54 1020.0
20260904084826 14 2 3.2 4.8 0.00 0.00 0.00 59 1020.0
20260904084322 13 25 1.6 3.2 0.00 0.00 0.00 60 1020.0
20260904083822 13 285 1.6 1.6 0.00 0.00 0.00 63 1021.0
20260904083323 13 210 6.4 8.0 0.00 0.00 0.00 64 1021.0
20260904082823 13 44 3.2 4.8 0.00 0.00 0.00 63 1020.0
20260904082323 13 3 4.8 8.0 0.00 0.00 0.00 61 1021.0
20260904081823 14 354 4.8 6.4 0.00 0.00 0.00 59 1021.0
20260904081322 14 325 3.2 4.8 0.00 0.00 0.00 59 1021.0
20260904080822 14 346 3.2 4.8 0.00 0.00 0.00 59 1021.0
20260904080322 14 354 3.2 6.4 0.00 0.00 0.00 59 1021.0
20260904075822 14 360 1.6 3.2 0.00 0.00 0.00 57 1021.0
20260904075322 14 19 3.2 4.8 0.00 0.00 0.00 57 1021.0
20260904074822 14 355 3.2 3.2 0.00 0.00 0.00 57 1021.0
20260904074322 14 3 3.2 6.4 0.00 0.00 0.00 58 1021.0
20260904073823 14 353 1.6 3.2 0.00 0.00 0.00 60 1021.0
20260904073322 15 22 3.2 4.8 0.00 0.00 0.00 55 1021.0
20260904072822 14 13 3.2 8.0 0.00 0.00 0.00 55 1021.0
20260904072322 14 351 3.2 4.8 0.00 0.00 0.00 58 1021.0
20260904071822 13 343 4.8 6.4 0.00 0.00 0.00 59 1021.0
20260904071322 14 349 4.8 8.0 0.00 0.00 0.00 60 1021.0
20260904070822 15 6 3.2 6.4 0.00 0.00 0.00 60 1021.0
20260904070324 16 350 3.2 6.4 0.00 0.00 0.00 56 1021.0
20260904065822 16 292 6.4 8.0 0.00 0.00 0.00 57 1021.0
20260904065322 16 282 6.4 8.0 0.00 0.00 0.00 57 1021.0
20260904064822 16 262 1.6 3.2 0.00 0.00 0.00 56 1021.0
20260904064322 16 288 1.6 3.2 0.00 0.00 0.00 58 1021.0
20260904063822 16 283 6.4 6.4 0.00 0.00 0.00 59 1021.0
20260904063322 16 295 8.0 9.7 0.00 0.00 0.00 57 1021.0